Wetbulb
72.69 75.40 75.27 73.92 73.47 73.26 73.00 72.52 72.25 72.02 71.69 71.41 71.55 71.65 71.94 72.53 72.90 72.65 72.36 72.14 70.51 71.27 71.68 71.82 73.86 75.04 74.27 74.23 74.32 74.67 75.03 75.24 74.61 74.55 74.28 74.92 75.03 75.00 74.73 75.11 74.67 73.92 74.44
73.19 74.89 74.55 74.37 73.38 72.95 72.61 72.45 72.02 71.93 72.11 72.46 72.22 72.33 73.01 73.87 73.96 73.72 72.50 71.78 71.19 71.44 71.60 71.55 72.25 74.39 74.63 74.25 73.94 73.75 73.84 73.85 73.71 73.62 73.51 73.61 74.87 74.74 74.71 74.98 75.12 74.54 74.11
72.32 73.65 73.37 74.29 73.28 73.04 72.47 72.03 72.31 72.62 72.74 72.51 72.59 73.43 74.25 74.55 74.86 74.35 74.55 74.30 73.98 73.82 73.81 73.51 72.31 72.57 74.43 73.90 73.26 73.20 73.38 72.51 72.29 72.69 73.63 73.30 73.67 74.61 74.58 74.55 74.64 74.47 74.01
72.39 73.01 73.01 73.31 73.15 72.72 72.13 72.14 72.75 72.73 72.57 72.47 73.01 74.02 74.07 74.16 73.83 73.60 73.38 73.13 72.75 72.33 72.27 72.91 72.95 72.15 72.83 73.13 72.77 72.37 71.91 72.53 72.69 72.80 73.55 71.84 72.55 74.35 74.37 74.22 73.94 73.94 73.62
71.88 72.95 73.81 73.67 73.00 72.63 72.19 72.58 72.68 72.43 72.47 72.57 73.20 73.67 73.88 74.02 73.42 73.41 72.59 71.62 70.65 70.25 70.18 70.81 71.81 71.97 71.87 72.50 72.60 72.74 72.29 72.86 73.60 73.42 71.15 72.91 70.98 73.46 73.56 73.68 73.51 73.21 73.56
71.85 72.94 73.30 73.67 72.92 72.47 72.39 72.56 72.17 72.03 72.24 73.15 73.36 73.48 73.58 73.07 72.95 72.70 71.58 70.84 71.11 71.65 71.71 71.57 70.89 70.89 71.70 72.45 71.97 71.59 71.30 71.84 72.87 70.41 71.13 73.19 72.70 73.38 72.82 73.03 73.27 73.36 73.19
70.82 72.97 73.37 73.38 72.71 72.47 72.21 72.31 72.03 71.69 72.37 73.33 73.32 73.27 73.18 72.93 72.66 71.77 71.10 71.50 72.73 72.44 72.21 71.67 71.91 72.49 71.33 71.30 71.70 71.49 71.72 72.26 72.22 70.70 70.68 71.84 71.66 72.65 72.22 72.32 72.29 72.75 73.06
70.96 71.10 72.52 73.07 72.79 72.27 72.21 72.29 71.87 71.67 72.13 73.33 73.31 73.23 73.03 72.58 72.00 71.29 71.01 71.11 71.69 71.87 72.35 72.57 72.52 72.68 73.67 72.48 71.92 71.06 71.40 72.22 72.13 71.35 70.88 71.86 72.29 71.77 71.94 71.84 71.81 72.15 72.50
70.72 71.31 71.11 71.86 72.97 72.35 72.10 72.05 71.56 71.40 71.81 72.82 73.25 72.92 72.64 72.31 71.96 71.08 70.86 70.66 70.50 70.52 71.10 71.83 72.26 72.72 72.62 72.17 71.29 70.93 71.01 71.68 69.93 70.30 69.80 70.95 71.86 71.46 71.46 71.41 71.29 71.23 72.33
69.97 70.26 70.27 70.83 70.61 70.29 70.94 71.91 71.56 71.11 70.93 71.71 72.75 72.64 72.26 72.14 71.86 71.11 72.03 70.75 70.18 69.64 70.26 70.71 71.06 71.42 71.78 71.87 70.95 70.91 71.36 73.03 69.79 69.24 70.28 71.47 71.51 71.78 71.40 70.85 71.02 71.29 72.09
68.42 69.78 69.71 69.62 70.06 69.60 69.41 71.22 71.35 70.95 70.77 71.02 71.87 72.20 73.05 71.93 71.75 71.13 71.26 70.18 69.80 69.26 69.10 69.71 69.94 70.51 71.20 71.68 71.31 71.14 71.59 69.72 67.84 69.86 70.23 70.40 70.91 71.32 71.43 71.20 71.03 71.08 71.79
67.27 68.65 69.60 69.67 69.34 69.64 69.13 70.32 70.66 71.06 71.14 71.63 71.87 71.75 72.17 73.42 72.71 71.17 71.36 70.58 70.68 70.31 69.13 69.59 70.04 71.34 71.76 70.38 69.56 71.32 70.01 67.52 66.90 69.49 68.73 69.27 69.17 70.50 71.21 70.94 71.01 71.22 71.04
67.82 68.67 69.42 70.12 70.52 69.64 68.91 69.67 70.31 71.24 71.79 72.63 73.27 73.38 73.82 73.00 72.17 69.86 70.52 70.54 71.61 70.78 70.19 68.91 69.45 69.64 70.99 70.79 67.99 67.44 67.05 66.77 66.63 69.00 67.98 68.11 67.96 68.01 69.76 70.23 70.37 70.54 70.64
67.21 68.71 69.83 70.31 70.10 70.81 69.21 69.54 70.19 70.15 71.60 71.81 72.63 73.43 73.49 72.62 73.03 73.43 71.85 71.91 71.92 71.12 70.73 70.06 69.29 70.11 70.13 69.48 67.74 67.23 67.13 66.95 66.59 67.69 67.82 67.17 66.85 65.80 66.92 68.77 69.53 69.73 69.96
66.61 68.38 69.93 71.20 71.31 70.92 70.61 70.03 70.06 69.77 70.29 71.61 72.29 73.21 73.24 72.98 74.24 73.41 73.24 72.03 70.94 70.56 70.48 69.89 70.14 70.13 69.44 68.82 68.98 68.01 67.56 67.52 67.34 66.76 68.21 66.15 65.93 65.25 64.92 65.66 67.43 68.75 69.86
67.27 68.28 69.59 70.71 72.05 71.21 71.37 71.37 70.54 70.66 71.20 71.70 72.49 73.47 74.03 73.62 75.06 73.48 71.04 71.09 70.81 70.26 70.05 70.01 69.67 69.90 69.61 69.03 69.19 68.45 68.29 68.45 68.05 68.26 68.24 66.84 65.87 65.22 64.53 64.77 64.92 65.88 68.23
67.70 68.98 70.02 71.22 72.15 72.35 71.81 71.40 71.43 70.80 70.92 71.82 72.61 74.27 74.18 74.63 74.89 74.49 72.69 71.61 72.05 71.77 71.24 70.95 70.01 69.39 69.33 69.00 68.73 69.16 68.33 68.62 68.46 68.63 68.36 68.39 66.33 65.65 65.66 65.41 65.22 65.38 65.46
69.89 70.56 70.84 70.08 71.56 72.62 72.29 71.72 71.25 71.52 71.29 71.84 72.77 73.42 74.30 74.95 74.84 74.43 72.01 70.36 72.64 71.13 70.83 71.23 69.88 68.97 68.60 68.91 68.18 68.50 68.95 68.64 68.20 68.77 68.45 68.00 68.56 67.80 65.90 65.59 65.23 65.61 65.64
71.35 71.88 72.22 71.17 70.93 72.98 73.29 72.56 73.11 74.39 72.16 72.25 73.03 73.50 74.74 74.47 74.28 74.20 72.84 71.63 73.38 71.69 70.70 70.40 69.72 69.33 69.61 68.61 68.04 68.25 68.53 68.34 68.22 67.92 68.16 67.95 68.22 67.83 68.07 66.29 65.89 65.54 65.35
72.25 72.74 73.79 73.42 74.50 75.55 73.90 73.89 72.13 71.63 72.01 72.47 72.57 73.06 74.23 74.33 73.71 74.16 72.89 72.49 73.07 71.95 70.95 70.45 70.83 70.26 69.04 68.76 67.66 67.59 68.21 68.51 68.81 68.84 69.32 68.11 68.20 68.23 68.41 68.48 67.15 66.20 65.88
72.52 74.08 75.18 75.26 77.16 74.66 72.97 72.30 71.45 70.59 71.83 71.75 72.22 73.42 73.97 74.17 74.46 74.40 72.19 73.59 72.91 72.27 72.11 72.17 70.61 70.25 68.82 69.37 67.43 67.32 68.02 69.06 69.02 68.66 68.37 68.44 68.23 68.12 68.09 68.09 67.97 68.02 66.40
72.70 74.93 75.39 75.93 77.86 76.67 74.14 74.70 73.78 73.81 72.91 72.94 73.18 74.55 73.98 74.02 74.35 73.54 73.79 73.59 74.71 71.33 72.55 71.75 71.64 69.02 68.79 69.73 66.44 65.61 63.19 64.00 67.73 68.54 68.58 68.05 68.44 68.47 67.86 68.09 67.83 68.15 68.36
72.72 75.41 75.51 76.71 77.78 77.68 77.16 75.80 75.83 75.11 75.04 73.12 73.38 73.20 74.18 74.55 74.39 74.60 74.17 74.30 75.39 73.20 72.02 73.99 72.32 70.83 67.66 68.64 69.97 66.13 62.50 60.88 64.53 67.10 68.45 68.11 68.68 67.87 68.31 68.45 68.15 68.12 69.60
72.08 74.24 76.56 77.73 78.39 78.31 78.69 75.58 75.79 72.57 71.36 72.44 74.21 72.39 73.16 75.16 74.50 74.36 74.73 74.37 75.06 73.54 74.35 73.42 71.64 71.10 71.14 68.03 68.93 68.96 68.68 67.17 62.59 61.84 67.06 67.75 68.04 67.67 69.42 68.53 67.96 68.70 69.74
72.11 73.76 76.19 77.56 78.23 78.21 78.05 76.92 74.58 74.60 73.18 73.63 75.35 75.31 77.51 77.16 75.45 73.62 74.22 74.31 74.74 76.23 74.63 72.85 72.32 69.76 68.92 70.06 67.85 69.55 69.62 68.96 69.60 65.23 61.66 63.92 67.07 67.64 67.72 67.78 66.71 67.64 69.67
71.43 72.18 73.97 76.24 76.99 77.51 76.77 76.43 77.60 76.06 75.07 73.57 74.61 75.74 74.86 74.11 73.63 74.94 73.68 74.13 75.00 73.97 73.79 72.45 71.73 71.56 72.77 72.10 71.43 71.05 69.34 67.33 65.55 65.49 63.53 62.65 62.76 64.18 64.91 67.97 67.98 67.47 66.05
MSLP
1010.38 1012.84 1014.00 1014.31 1014.61 1014.82 1015.05 1015.11 1015.12 1015.17 1015.23 1015.34 1015.38 1015.38 1015.34 1015.30 1015.30 1015.28 1015.21 1015.25 1015.23 1015.12 1015.05 1015.03 1014.98 1014.88 1015.00 1015.00 1015.07 1015.10 1015.13 1015.18 1015.14 1015.08 1015.06 1015.15 1015.11 1015.16 1015.15 1015.10 1014.93 1014.77 1015.33
1010.77 1012.75 1014.06 1014.47 1014.74 1014.97 1015.23 1015.25 1015.39 1015.53 1015.55 1015.61 1015.64 1015.64 1015.55 1015.49 1015.53 1015.46 1015.46 1015.42 1015.33 1015.23 1015.23 1015.25 1015.23 1015.17 1015.26 1015.29 1015.36 1015.41 1015.46 1015.35 1015.18 1015.15 1015.22 1015.41 1015.20 1015.41 1015.49 1015.50 1015.20 1015.44 1015.72
1011.35 1013.09 1014.03 1014.62 1014.99 1015.22 1015.48 1015.59 1015.66 1015.76 1015.80 1015.85 1015.88 1015.85 1015.77 1015.70 1015.68 1015.75 1015.69 1015.59 1015.53 1015.47 1015.41 1015.40 1015.41 1015.44 1015.40 1015.43 1015.52 1015.59 1015.63 1015.47 1015.21 1015.09 1015.12 1015.10 1014.95 1015.60 1015.74 1015.80 1015.77 1015.91 1016.10
1011.88 1012.90 1013.90 1014.88 1015.27 1015.52 1015.76 1015.86 1015.88 1015.99 1016.05 1016.08 1016.14 1016.13 1016.08 1016.09 1016.07 1016.01 1015.92 1015.85 1015.78 1015.76 1015.74 1015.68 1015.66 1015.71 1015.79 1015.81 1015.82 1015.74 1015.66 1015.49 1015.24 1015.28 1014.58 1015.13 1014.83 1015.80 1016.00 1016.12 1016.13 1016.26 1016.38
1011.83 1012.70 1014.34 1015.06 1015.46 1015.77 1015.98 1016.09 1016.21 1016.32 1016.32 1016.34 1016.37 1016.39 1016.46 1016.45 1016.43 1016.42 1016.38 1016.21 1016.02 1015.95 1015.93 1015.92 1015.91 1015.89 1015.94 1015.89 1015.92 1015.80 1015.66 1015.47 1015.43 1015.41 1014.46 1014.98 1015.63 1015.97 1016.13 1016.22 1016.32 1016.46 1016.52
1011.79 1012.56 1014.74 1015.19 1015.66 1015.96 1016.11 1016.29 1016.47 1016.56 1016.58 1016.54 1016.50 1016.55 1016.65 1016.72 1016.73 1016.76 1016.63 1016.48 1016.32 1016.14 1016.06 1016.02 1016.05 1016.08 1016.04 1016.01 1016.01 1015.95 1015.86 1015.76 1015.67 1015.15 1014.65 1015.10 1015.60 1016.31 1016.28 1016.36 1016.46 1016.55 1016.68
1011.37 1012.96 1014.52 1015.32 1015.79 1016.05 1016.29 1016.46 1016.58 1016.69 1016.73 1016.72 1016.74 1016.81 1016.80 1016.90 1017.01 1016.91 1016.83 1016.75 1016.54 1016.39 1016.25 1016.18 1016.16 1016.17 1016.15 1016.19 1016.17 1016.02 1015.80 1015.63 1014.95 1014.95 1015.32 1015.40 1016.10 1016.42 1016.43 1016.48 1016.54 1016.65 1016.77
1011.20 1012.70 1014.53 1015.56 1015.92 1016.12 1016.29 1016.49 1016.64 1016.72 1016.81 1016.91 1016.93 1017.00 1016.98 1017.01 1017.06 1017.04 1016.95 1016.89 1016.75 1016.64 1016.49 1016.39 1016.30 1016.30 1016.28 1016.38 1016.26 1016.01 1015.72 1015.43 1014.73 1014.40 1015.45 1015.73 1016.66 1016.73 1016.63 1016.56 1016.53 1016.64 1016.85
1011.01 1012.23 1013.76 1014.81 1015.71 1016.19 1016.32 1016.60 1016.80 1016.93 1016.95 1016.98 1017.10 1017.20 1017.14 1017.14 1017.16 1017.21 1017.22 1017.12 1017.03 1016.91 1016.67 1016.53 1016.50 1016.38 1016.44 1016.47 1016.41 1016.14 1015.65 1015.32 1015.35 1014.41 1015.40 1016.02 1017.05 1017.08 1016.91 1016.86 1016.74 1016.75 1016.89
1010.91 1011.83 1012.81 1013.87 1014.83 1015.28 1015.94 1016.54 1016.86 1017.11 1017.24 1017.36 1017.29 1017.34 1017.26 1017.34 1017.31 1017.26 1017.20 1017.22 1017.19 1017.17 1017.08 1016.86 1016.60 1016.51 1016.52 1016.51 1016.35 1015.99 1015.62 1015.21 1014.52 1014.95 1015.79 1016.57 1017.36 1017.31 1017.24 1017.09 1017.03 1017.01 1017.18
1010.84 1011.28 1011.93 1012.91 1013.74 1013.86 1014.70 1016.13 1016.81 1017.01 1017.16 1017.33 1017.36 1017.31 1017.15 1016.19 1016.50 1016.72 1017.19 1017.24 1017.24 1017.15 1017.01 1016.98 1016.84 1016.67 1016.58 1016.32 1015.85 1015.66 1015.53 1014.13 1014.01 1015.04 1016.39 1017.24 1017.68 1017.63 1017.56 1017.44 1017.37 1017.43 1017.49
1010.69 1011.11 1011.48 1012.41 1012.78 1012.93 1013.94 1015.72 1015.90 1016.26 1016.46 1016.50 1016.40 1016.66 1016.36 1015.76 1016.08 1016.05 1016.60 1017.08 1017.03 1017.00 1016.84 1016.60 1016.58 1016.54 1016.39 1015.42 1015.27 1015.28 1014.55 1014.34 1014.54 1015.25 1017.00 1017.48 1017.87 1017.86 1017.78 1017.80 1017.80 1017.81 1017.86
1010.63 1011.18 1011.44 1012.47 1012.84 1012.78 1013.45 1015.03 1014.93 1015.28 1015.46 1015.75 1015.80 1015.91 1015.55 1015.59 1016.00 1016.46 1016.43 1016.59 1016.44 1016.33 1016.06 1016.28 1016.04 1015.73 1014.90 1014.38 1014.56 1014.84 1014.81 1014.65 1014.76 1015.39 1017.27 1017.58 1017.79 1017.98 1018.08 1018.11 1018.19 1018.26 1018.33
1010.67 1011.28 1011.67 1012.57 1013.33 1013.37 1013.40 1014.21 1014.17 1014.53 1014.94 1015.15 1015.57 1015.94 1015.48 1016.01 1015.79 1015.63 1015.97 1015.84 1015.98 1014.99 1015.36 1015.00 1015.05 1015.35 1015.06 1014.92 1014.54 1014.57 1014.67 1014.84 1015.13 1015.39 1017.25 1017.78 1017.99 1018.04 1018.07 1018.13 1018.28 1018.45 1018.59
1010.45 1011.41 1012.04 1012.58 1013.55 1014.01 1013.90 1014.03 1014.11 1014.38 1014.95 1014.88 1015.09 1015.63 1015.31 1015.55 1016.05 1015.95 1015.57 1015.22 1015.58 1015.25 1015.42 1015.45 1015.23 1015.36 1015.41 1015.21 1014.70 1015.11 1014.99 1015.22 1015.54 1015.47 1016.58 1017.65 1017.96 1018.11 1018.25 1018.36 1018.29 1018.46 1018.61
1010.15 1011.20 1011.99 1012.60 1013.65 1014.15 1014.38 1014.24 1014.58 1014.64 1014.69 1015.02 1014.93 1015.15 1015.90 1015.61 1015.88 1015.85 1016.53 1016.01 1015.57 1015.47 1015.52 1015.33 1015.40 1015.41 1015.71 1015.47 1015.16 1015.37 1015.36 1015.04 1015.46 1015.79 1015.81 1017.11 1017.57 1017.95 1018.24 1018.32 1018.32 1018.45 1018.68
1009.93 1010.79 1011.97 1012.69 1013.35 1014.13 1014.45 1014.67 1014.54 1014.52 1014.60 1014.84 1014.94 1015.44 1015.90 1015.99 1015.83 1015.98 1016.30 1015.42 1015.25 1015.55 1016.11 1016.04 1016.11 1015.87 1015.32 1014.97 1015.56 1015.26 1015.23 1015.62 1015.46 1015.84 1015.96 1016.08 1017.21 1017.67 1017.76 1017.89 1018.16 1018.35 1018.46
1009.68 1010.58 1011.90 1012.30 1012.85 1013.84 1014.24 1014.45 1014.33 1014.04 1014.34 1014.44 1014.65 1014.85 1015.58 1015.75 1015.88 1016.21 1015.66 1015.73 1015.25 1015.66 1015.52 1015.63 1016.18 1015.63 1015.53 1015.15 1015.16 1015.09 1015.00 1015.41 1015.53 1015.70 1016.01 1015.96 1016.03 1016.72 1017.64 1018.10 1018.13 1018.12 1018.34
1009.66 1010.28 1011.43 1012.02 1012.23 1013.30 1013.97 1014.15 1014.30 1014.13 1014.49 1014.21 1014.34 1014.41 1014.85 1015.16 1015.22 1015.75 1015.40 1014.95 1015.59 1015.41 1015.42 1015.77 1015.75 1016.04 1015.65 1015.80 1015.07 1015.22 1015.19 1015.19 1015.40 1015.04 1015.51 1016.16 1016.08 1016.35 1016.07 1017.35 1017.94 1018.14 1018.29
1009.28 1010.01 1010.89 1011.62 1012.00 1012.69 1013.37 1013.83 1013.75 1013.92 1014.11 1013.92 1013.80 1013.89 1014.20 1014.61 1014.68 1015.00 1015.08 1015.16 1015.57 1015.34 1015.38 1015.71 1016.11 1015.80 1016.01 1015.62 1014.78 1014.35 1014.85 1015.09 1015.11 1015.12 1015.82 1015.94 1015.80 1015.97 1016.11 1016.47 1017.25 1017.51 1017.84
1008.74 1009.65 1010.27 1011.02 1011.70 1012.11 1012.70 1012.88 1013.00 1012.89 1013.21 1013.42 1013.42 1013.67 1013.93 1014.24 1014.18 1014.56 1014.77 1014.79 1015.46 1015.53 1015.49 1015.88 1016.26 1016.27 1015.92 1015.89 1015.94 1014.94 1014.45 1014.58 1015.00 1015.22 1015.41 1015.16 1015.00 1015.18 1015.61 1015.74 1016.07 1015.92 1016.78
1007.76 1008.72 1009.63 1010.22 1010.99 1011.79 1012.08 1012.20 1012.08 1012.18 1012.20 1012.47 1012.59 1012.97 1013.53 1013.79 1014.07 1014.03 1014.50 1014.43 1014.69 1015.03 1015.40 1015.95 1016.18 1015.92 1015.49 1015.32 1015.67 1015.16 1014.38 1014.57 1014.07 1014.81 1014.90 1014.68 1014.60 1014.67 1014.60 1014.87 1015.35 1015.64 1015.71
1006.59 1007.61 1008.63 1009.46 1010.09 1010.82 1011.10 1011.64 1012.02 1011.97 1012.02 1011.81 1012.02 1012.30 1012.81 1013.30 1013.38 1013.69 1013.82 1014.33 1014.82 1015.23 1015.20 1015.90 1016.24 1016.15 1015.51 1015.22 1015.65 1015.55 1014.96 1014.26 1014.11 1014.05 1014.21 1014.16 1014.12 1014.18 1014.26 1014.30 1014.42 1014.80 1015.25
1005.14 1006.62 1007.78 1008.66 1009.55 1010.06 1010.74 1010.76 1011.10 1011.25 1011.31 1011.34 1011.39 1011.60 1011.89 1012.43 1012.75 1012.92 1013.42 1013.58 1014.49 1014.77 1014.92 1015.69 1015.97 1016.18 1016.17 1015.39 1015.53 1015.36 1015.57 1015.55 1015.13 1014.39 1014.07 1013.80 1013.97 1013.87 1013.85 1013.99 1013.83 1013.87 1014.27
1004.46 1005.26 1006.45 1007.59 1008.46 1009.26 1010.05 1010.40 1010.57 1010.90 1010.73 1010.85 1011.12 1011.68 1011.71 1012.12 1012.73 1013.01 1013.12 1013.64 1014.04 1014.57 1015.17 1015.25 1015.80 1015.87 1015.88 1015.79 1014.99 1015.39 1015.79 1016.00 1016.00 1015.88 1014.64 1013.98 1014.17 1013.85 1013.83 1013.65 1014.00 1014.22 1013.69
1003.19 1004.31 1005.34 1006.66 1007.51 1008.55 1009.37 1010.17 1010.26 1010.59 1010.75 1010.57 1011.44 1011.98 1012.07 1012.10 1012.74 1012.91 1012.81 1013.35 1013.85 1014.26 1014.71 1014.95 1015.39 1015.71 1015.77 1015.74 1015.85 1015.72 1015.91 1016.04 1015.85 1015.76 1015.44 1014.72 1014.02 1013.55 1013.28 1013.42 1013.74 1013.76 1014.04
Wind_Speed
18 18 14 12 12 11 10 10 9 9 9 8 9 9 9 9 8 8 7 7 6 7 6 6 7 8 9 10 10 10 9 9 7 6 7 8 9 8 8 10 6 10 10
21 17 14 12 11 10 10 9 9 9 9 9 9 9 9 8 6 9 9 8 7 7 6 6 7 7 9 9 9 8 7 6 3 2 5 8 11 9 9 11 13 12 9
19 16 15 12 12 11 9 9 9 8 9 9 9 9 7 10 13 11 10 10 10 8 7 7 6 6 8 8 7 6 5 3 2 4 6 6 11 10 9 10 11 9 7
17 15 15 14 12 11 10 9 9 9 9 9 9 8 11 11 11 11 11 10 10 10 9 8 7 6 6 7 6 4 1 1 6 6 5 7 11 11 9 8 7 7 5
15 15 16 14 12 11 11 10 9 9 9 9 9 9 10 11 11 11 10 9 8 8 8 8 7 7 6 6 6 6 1 5 9 10 3 15 7 10 9 8 5 6 8
15 17 16 14 13 12 11 10 9 9 9 9 10 10 10 9 10 10 9 8 8 8 8 7 6 6 6 6 5 3 3 3 8 9 7 13 11 10 10 8 8 7 7
16 18 16 15 14 12 11 10 10 9 9 10 10 10 10 9 9 9 8 8 9 10 10 9 10 7 6 6 5 2 5 7 8 7 10 11 11 9 8 7 6 5 6
16 17 16 15 13 12 11 10 10 10 10 10 10 10 9 9 9 7 8 8 8 9 10 9 10 10 9 7 4 1 5 9 7 9 10 10 11 8 7 7 6 5 6
16 17 15 15 13 12 11 10 9 9 9 10 9 9 8 9 9 7 7 6 7 7 7 9 8 10 10 8 4 3 7 9 5 1 10 9 11 7 7 7 7 5 8
13 16 16 16 15 14 13 12 10 8 8 8 8 9 9 9 8 8 8 6 5 6 5 6 6 8 9 8 3 6 10 14 3 9 10 10 9 9 8 7 8 8 10
11 14 15 15 15 14 15 12 10 9 8 8 9 9 11 9 12 14 10 6 2 3 6 4 3 5 7 9 10 11 11 5 7 10 9 14 10 9 9 8 8 9 12
13 12 12 13 14 13 11 13 11 11 9 9 10 9 10 0 6 6 9 9 7 6 7 10 10 10 11 7 8 11 6 4 5 11 8 13 8 10 9 9 8 10 10
12 10 11 10 8 9 9 9 7 7 7 6 6 7 0 3 5 4 5 6 7 14 7 11 10 9 10 5 5 4 4 4 4 9 10 11 8 7 8 8 8 9 11
14 11 10 13 9 7 7 7 7 6 5 5 7 6 3 2 3 4 4 9 8 2 2 3 5 4 3 4 5 5 6 5 4 6 9 9 7 6 6 7 7 6 9
14 13 11 12 9 8 6 6 4 5 5 6 6 7 5 3 4 3 3 6 5 3 3 1 4 2 4 4 2 2 4 6 4 3 8 11 8 5 4 3 6 7 9
14 14 14 12 11 10 8 5 4 4 6 5 5 5 5 5 4 4 6 5 3 4 2 1 2 1 1 4 3 4 3 3 5 3 6 9 11 7 4 3 4 5 7
12 14 12 12 13 11 10 7 6 6 6 6 5 4 5 5 5 3 2 7 3 1 3 2 3 2 6 4 8 8 5 3 4 3 3 7 10 11 10 9 7 6 7
13 14 13 12 14 13 10 8 7 6 7 6 6 6 8 8 6 4 5 8 6 3 5 1 3 4 5 3 4 5 2 2 3 3 5 2 2 8 10 10 8 8 8
13 14 14 14 14 14 11 9 8 6 6 6 6 6 9 8 5 4 6 4 2 6 4 3 4 4 3 5 5 4 4 4 4 6 4 3 4 4 4 14 12 10 10
16 13 14 13 12 13 10 9 8 8 8 8 8 7 7 7 8 6 8 4 1 6 3 5 6 4 5 7 9 3 3 4 7 3 2 5 8 7 6 9 9 9 14
17 16 14 15 13 10 11 10 10 10 9 9 9 9 8 9 8 7 8 8 6 8 3 3 6 8 7 5 6 7 8 10 8 4 6 9 8 9 9 8 7 8 11
19 17 17 15 14 12 11 9 9 9 9 9 9 9 10 10 10 7 7 7 6 6 5 6 6 8 7 3 7 6 5 3 7 7 7 7 8 7 9 10 10 10 8
21 19 18 17 16 15 15 10 7 7 6 7 8 9 10 11 11 10 8 6 6 3 4 4 5 7 8 3 7 7 5 5 1 5 10 6 7 7 8 9 10 11 10
23 20 18 17 16 16 16 13 13 11 10 9 6 5 7 12 12 8 6 7 7 7 5 4 5 5 7 9 4 6 7 8 7 6 0 7 6 6 7 7 7 9 11
22 20 18 17 18 17 16 16 13 12 10 8 4 5 6 7 8 8 9 7 7 4 6 7 5 4 5 8 6 3 5 4 6 5 9 8 2 6 7 5 6 8 4
23 23 21 19 18 18 17 17 13 13 11 8 7 3 5 7 7 9 10 9 7 7 7 6 6 6 7 8 6 5 5 4 6 5 5 9 10 9 9 5 7 5 3
Wind_Direction
117 119 124 124 121 115 110 110 105 107 109 105 101 93 87 85 84 82 82 87 83 82 82 86 89 87 95 88 86 81 73 69 67 81 91 91 77 61 38 26 330 88 85
112 127 120 130 120 116 116 114 116 116 112 105 94 91 87 76 80 74 82 85 82 84 88 87 91 83 93 86 82 80 83 83 100 145 131 112 87 66 45 48 41 82 86
116 123 138 128 128 125 120 118 118 117 108 100 94 88 80 83 81 83 88 78 76 79 84 85 94 98 93 92 82 71 76 85 259 262 227 170 86 70 52 52 65 73 80
125 143 133 137 130 127 130 133 133 122 108 97 91 84 86 90 89 85 82 76 69 65 65 69 85 95 93 89 71 46 100 257 264 273 294 51 73 79 66 57 68 79 96
136 131 120 133 134 135 140 144 135 124 115 112 109 100 97 96 93 88 82 75 70 66 61 64 77 92 97 89 63 54 38 257 303 294 154 75 338 68 64 47 114 87 50
143 130 134 135 139 143 148 144 134 126 122 121 119 114 106 103 97 89 85 72 62 66 70 72 86 103 107 101 70 39 7 326 10 305 16 100 70 63 54 51 58 63 73
149 122 139 142 145 148 149 146 139 134 130 128 128 119 116 110 100 97 85 76 69 69 75 75 75 86 125 114 94 28 325 310 299 137 87 69 66 59 61 65 70 74 78
136 145 137 143 149 151 152 152 145 142 138 135 133 128 127 123 115 107 98 89 79 68 66 74 82 79 92 104 92 21 302 300 308 85 76 76 52 51 65 74 85 97 104
142 137 151 153 151 154 158 155 152 152 146 139 138 135 138 133 130 126 110 97 80 65 69 73 89 99 102 100 84 285 268 261 242 169 96 56 45 43 59 66 72 108 121
152 146 154 151 163 167 161 161 161 157 144 144 145 149 152 148 157 159 156 117 89 81 74 76 95 113 120 122 162 257 279 290 257 72 59 67 41 51 52 64 73 92 116
165 160 161 161 165 179 157 155 167 167 162 158 165 185 190 177 179 167 94 124 118 120 126 134 167 158 156 170 189 230 254 273 53 106 77 65 45 53 56 63 76 97 120
172 166 163 167 169 177 148 151 180 169 179 190 189 192 223 136 58 134 139 169 184 204 209 179 194 205 211 181 186 225 236 63 61 80 77 76 52 47 56 66 80 93 117
178 166 176 161 181 166 166 163 180 172 183 200 210 216 104 176 213 176 157 175 215 195 205 189 194 207 219 209 51 45 31 47 60 87 98 102 92 66 53 68 73 95 108
169 178 188 157 182 225 177 187 179 185 183 204 198 209 182 208 292 292 149 191 222 196 36 323 78 20 69 308 54 73 77 34 32 92 110 107 104 97 96 94 102 108 115
170 174 196 162 186 197 249 187 209 201 192 215 176 189 249 218 99 330 266 324 328 348 194 161 112 206 159 206 114 52 59 77 110 39 109 133 130 116 107 122 130 127 134
175 174 189 193 174 193 214 229 194 220 171 222 203 173 220 267 137 248 23 235 104 322 276 15 73 188 175 268 333 173 280 64 95 352 109 140 146 145 137 148 159 163 152
178 170 193 193 171 195 203 201 219 193 222 206 219 181 222 232 199 253 189 270 136 191 331 253 312 256 252 240 177 234 216 182 229 158 273 146 147 163 168 172 179 191 197
189 168 187 194 176 186 194 193 219 212 215 210 211 193 204 225 245 272 226 264 70 237 233 317 272 276 298 304 286 298 213 224 241 194 247 288 188 145 175 183 190 195 205
197 174 180 197 192 183 194 204 215 211 230 223 216 224 183 223 236 223 275 262 108 274 282 316 227 281 285 281 259 210 260 282 249 242 168 222 243 271 236 174 189 201 212
184 194 184 193 210 175 186 204 204 213 214 227 223 220 199 219 224 183 249 272 236 265 245 247 337 291 296 309 306 349 274 271 240 227 267 242 249 239 236 185 178 205 210
196 190 195 193 188 191 196 198 208 208 206 219 225 225 221 224 238 179 257 177 214 271 284 321 258 224 271 233 282 248 221 201 214 240 247 247 238 226 234 233 230 246 185
195 195 198 204 192 197 198 215 214 214 214 209 214 208 214 220 227 212 213 270 201 274 202 256 252 291 239 225 271 307 272 337 195 220 222 235 233 254 241 219 243 241 263
202 193 199 200 198 194 212 199 209 239 237 218 222 203 202 218 217 210 214 232 326 248 255 216 245 256 280 227 201 287 300 259 285 245 212 221 233 233 243 247 239 229 235
202 197 200 199 201 199 198 202 205 206 215 216 211 215 166 197 212 206 200 200 213 261 248 209 219 240 248 275 139 236 261 310 288 295 235 228 229 242 248 258 255 226 225
203 197 193 195 198 203 195 221 197 217 216 230 191 169 206 177 198 208 213 226 214 201 264 237 257 246 280 261 274 250 267 276 275 267 292 299 186 250 243 222 277 271 272
203 200 194 193 195 195 198 204 221 198 229 232 202 215 219 194 201 221 214 214 223 218 233 242 242 246 259 298 309 318 275 274 279 268 268 281 285 292 287 226 237 282 266